Back to catalog

YAOGAN-50

AliveMilitaryLEO
NORAD 67433·PAYLOAD·🇨🇳 China

Launched Jan 13, 2026 from Taiyuan Satellite Launch Center

Loading…

Next Passes (next 24 hours)

TLE

FreshSource: Space-Track

Epoch: Sep 14, 2026, 13:46 UTC

1 67433U 26006A   26257.57394948  .00000315  00000-0  11480-3 0  9994
2 67433 142.0416 287.7440 0001058 288.2462  71.8142 13.83249634 33812

Track YAOGAN-50 in real time with AllMySat

Download on the App Store